STARLINK-3841, 52369

Orbit data source: Space-Track

STARLINK-3841, 52369 is a payload satellite owned by SpaceX/Seattle (US) in LEO that was launched on Fri, 29 Apr 2022 UTC via an FALCON 9 launch vehicle from the Air Force Eastern Test Range (AFETR). Payload-class satellites include a variety of spacecraft equipped with specific instruments for various scientific and technological missions. These include communications satellites like Starlink; space stations such as the ISS; scientific satellites like the Hubble; Earth observation satellites from companies like Planet Labs, Umbra, and HawkEye 360; GPS; miniature CubeSats for education and research; and military/defense satellites.

Loading next visibility...
Identifier
52369, 2022-045AQ
Orbit
LEO
Country
Flag of USUS
Related business
Manufacturer
SpaceX/Seattle
Mission
Operational Commercial Communications
Bus & Motor
STARLINK, Unknown motor
Mass
297 kg wet, ~275 kg dry
Launch date (UTC)
2022-04-29 (4 years ago)
Launch vehicle
FALCON 9
Launch site
Air Force Eastern Test Range (AFETR)
Object type
Payload
Rocket body
Debris
Shape & HBR
Box + 1 Pan, 10.1 m
Radar Cross Section
11.087 m², Large (>1 m²)

Expand to show TLE details & history
Last TLE update: 18 hours ago

TLE from 18 hours ago
0 STARLINK-3841
1 52369U 22045AQ  25349.32207782  .00000806  00000-0  68764-4 0  9991
2 52369  53.2165 207.8595 0001404  93.3484 266.7669 15.08835131203186
Epoch: 2025-12-15T07:43Z
TLE epoch observation values (Epoch: 2025-12-15T07:43:47.523Z)
Latitude
-0.00001°
Longitude
7.68917°
Altitude
540.711 km
Speed
7.593 km/s
True Right ascension
13h 51m 26s
True Declination
0° 00' 00"
Sunlit
Object was in daylight at epoch
Visualization orbit readout
Latitude
Unknown
Longitude
Unknown
Altitude
Unknown
Speed
Unknown
Apparent Right ascension
Unknown
Apparent Declination
Unknown
Sunlit
N/A
Visualization observer readout
Local Sidereal Time
00:19:30
Azimuth
Unknown
Elevation
Unknown
Doppler factor
Unknown
Orbital elements
Apogee altitude
540.975 km
Perigee altitude
539.032 km
Semi-major axis
6,918.14 km
Eccentricity
0.00014
Inclination
53.2165°
RAAN
207.8595°
Arg. of periapsis
93.3484°
True anomaly
266.75084°
Mean anomaly
266.7669°
Eccentric anomaly
266.75887°
Mean motion
3.77189 °/min
Orbital period
95.44 mins
BSTAR
0.000068764
Loading maneuver chart data...
Computing Atmospheric mass density...
Loading historical data...
Loading historical data...
Loading historical data...
Loading historical data...
Loading historical data...
Loading historical data...
Loading historical data...

Documentation

Showing up to 5 results
|